Location: Finnegan
(51.1333°N, 112.0833°W)
Time: 13:00:52
(UTC+00:00)

N. Korean satellite - Pass Details

Date: 09 December 2021
Orbit: 447 x 490 km, 97.3° (Epoch: 27 January)

Event Time Altitude Azimuth Distance (km) Brightness Sun altitude
Rises 11:49:28 0° 28° (NNE) 2,464 10.5 -31.8°
Reaches altitude 10° 11:52:08 10° 52° (NE) 1,584 9.7 -31.4°
Maximum altitude 11:54:17 16° 91° (E) 1,269 9.4 -31.0°
Drops below altitude 10° 11:56:25 10° 130° (SE) 1,577 9.7 -30.7°
Sets 11:59:03 0° 154° (SSE) 2,446 10.4 -30.3°
